Kuchera_Ratio
0.5 0.0 0.0 0.0 0.0 0.0 0.0 0.0 0.0 0.0 0.0 0.0 0.0 0.0 0.0 0.0 0.0 0.0 0.0 0.0 0.0 0.0 0.0 0.0 0.0 0.0 0.0
4.8 2.3 0.4 0.0 0.0 0.0 0.0 0.0 0.0 0.0 0.0 0.0 0.0 0.0 0.0 0.0 0.0 0.0 0.0 0.0 0.0 0.0 0.0 0.0 0.0 0.0 0.0
9.3 3.3 1.1 0.0 0.0 0.0 0.0 0.0 0.0 0.0 0.0 0.0 0.0 0.0 0.0 0.0 0.0 0.0 0.0 0.0 0.0 0.0 0.0 0.0 0.0 0.0 0.0
10.5 7.4 3.7 0.3 0.0 2.6 2.2 0.0 0.0 0.0 0.0 0.0 0.0 0.0 0.0 0.0 0.0 0.0 0.0 0.0 0.0 0.0 0.0 0.0 0.0 0.0 0.0
9.0 7.8 6.9 5.3 4.7 1.1 2.7 0.1 0.0 0.0 0.0 0.0 0.0 0.0 0.0 0.0 0.0 0.0 0.0 0.0 0.0 0.0 0.0 0.0 0.0 0.0 0.0
7.4 8.8 6.1 3.5 2.4 2.9 3.2 4.4 7.1 0.0 0.0 0.0 0.0 0.0 0.0 0.0 0.0 0.0 0.0 0.0 0.0 0.0 0.0 0.0 0.0 0.0 0.0
9.4 8.1 8.0 3.1 2.2 4.3 3.5 3.6 4.3 0.0 0.4 4.2 0.0 0.0 0.0 0.0 0.0 0.0 0.0 0.0 0.0 0.0 0.0 0.0 0.0 0.0 0.0
2.4 2.7 1.2 0.1 0.8 1.2 1.8 2.2 0.6 0.5 0.0 9.0 0.0 0.0 0.0 0.0 0.0 0.0 0.0 0.0 0.0 0.0 0.0 0.0 0.0 0.0 0.0
0.0 0.0 0.0 0.0 1.4 3.7 7.2 7.7 8.4 4.2 0.0 2.4 2.0 1.0 0.0 0.0 0.0 0.0 0.0 0.0 0.0 0.0 0.0 0.0 0.0 0.0 0.0
1.0 0.0 0.0 0.0 0.0 1.0 4.1 9.3 8.6 9.8 2.0 5.7 4.4 3.6 8.7 0.0 0.0 0.0 0.0 0.0 0.0 0.0 0.0 0.0 0.0 0.0 0.0
7.2 6.7 6.4 5.4 2.6 1.4 1.8 4.8 9.1 10.1 2.6 3.9 7.9 7.9 8.7 8.8 3.9 0.0 0.0 0.0 0.0 0.0 0.0 0.0 0.0 0.0 0.0
7.2 7.4 6.2 4.9 3.1 2.3 2.3 2.7 2.7 5.5 3.6 3.6 9.7 9.7 11.3 12.1 11.8 4.0 1.1 0.0 0.0 0.0 0.0 0.0 0.0 0.0 0.0
11.7 10.4 7.9 6.0 5.7 6.7 6.0 5.5 5.9 5.4 3.6 4.4 7.7 8.8 10.3 12.4 12.2 9.0 8.0 4.0 0.4 1.0 0.0 0.1 0.4 0.0 1.6
12.2 10.7 9.3 10.5 11.1 9.2 11.3 10.8 12.1 11.2 6.2 5.4 6.2 7.6 11.4 10.0 9.7 10.8 7.8 10.5 3.3 1.7 1.4 1.2 0.2 0.0 0.1
13.1 13.4 13.0 12.6 12.3 10.0 11.4 12.3 13.6 13.2 12.2 8.3 6.1 6.3 7.6 9.9 12.6 10.0 9.0 7.9 4.8 4.1 3.9 6.7 4.8 3.1 1.6
13.2 13.7 13.8 13.5 13.3 12.5 12.1 13.0 13.6 12.8 12.6 10.6 10.2 11.9 10.7 8.3 6.0 10.8 8.8 8.4 6.0 4.8 4.8 8.3 7.5 1.6 0.0
13.8 14.1 14.0 14.3 13.9 13.9 13.5 13.5 13.6 12.9 12.4 10.7 11.7 13.0 15.0 15.5 7.9 1.6 8.6 7.6 7.7 7.9 6.8 7.6 9.0 6.3 2.2